Regional Weather Roundup
Issued by NWS

Home | Current Version | Previous Version | Graphics & Text | Print | Product List | Glossary On
Versions: 1 2 3 4 5 6 7 8 9 10 11 12 13 14 15 16 17 18 19 20 21 22 23 24 25 26 27 28 29 30 31 32 33 34 35 36 37 38 39 40 41 42 43 44 45 46 47 48 49 50
178
ASUS43 KDMX 120601
RWRIA

WEATHER ROUNDUP FOR IOWA
NATIONAL WEATHER SERVICE DES MOINES IA
1200 AM CST TUE DEC 12 2017

NOTE: "FAIR" INDICATES FEW OR NO CLOUDS BELOW 12,000 FEET WITH NO
SIGNIFICANT WEATHER AND/OR OBSTRUCTIONS TO VISIBILITY.

* - THESE STATIONS ARE NOT NWS STATIONS...THUS NOT UNDER NWS
QUALITY CONTROL.  THEY ALSO DO NOT REPORT WEATHER SUCH
AS PRECIPITATION OR FOG.

IAZ001>003-012>014-020>022-031>034-043>046-120700-
   NORTHWEST IOWA

CITY           SKY/WX    TMP DP  RH WIND       PRES   REMARKS
CARROLL *      CLEAR     18  12  79 NW14G21   30.29R WCI   4
CHEROKEE *     CLEAR     17  12  80 N8        30.33S WCI   7
DENISON *      CLEAR     19  12  73 N15       30.33R WCI   5
LE MARS *      CLEAR     18  14  86 N9        30.35S WCI   6
ORANGE CITY *  CLEAR     18  16  93 N13       30.32S WCI   4
SHELDON *      CLEAR     16  12  86 N12       30.31S WCI   3
SIOUX CITY     CLEAR     19  13  77 N14       30.37R WCI   6
6HR MIN TEMP:  19; 6HR MAX TEMP:  34;

SPENCER        CLEAR     15   8  73 NW18      30.30R WCI  -2
6HR MIN TEMP:  15; 6HR MAX TEMP:  25;

STORM LAKE *   CLEAR     16   9  73 NW16      30.29S WCI   0
$$

IAZ055>058-069>071-079>083-090>094-120700-
   SOUTHWEST IOWA

CITY           SKY/WX    TMP DP  RH WIND       PRES   REMARKS
ATLANTIC *     CLEAR     21  14  73 N12       30.31R WCI   9
AUDUBON *      CLEAR     19  14  79 NW12G17   30.29R WCI   7
CLARINDA *     CLEAR     27  18  69 N18G24    30.31R WCI  13
COUNCIL BLFS * CLEAR     25  19  80 NW16G24   30.31S WCI  12
CRESTON *      CLEAR     21  12  68 N25G31    30.26R WCI   4
HARLAN  *      CLEAR     21  14  73 N10G20    30.34R WCI  10
LAMONI         PTCLDY    23  15  71 N15       30.23R WCI  10
6HR MIN TEMP:  23; 6HR MAX TEMP:  39;

RED OAK *      CLEAR     25  19  80 N16       30.31R WCI  12
SHENANDOAH *   CLEAR     27  21  80 N12       30.32R WCI  16
$$

IAZ047>049-059>061-072>074-084-120700-
   CENTRAL IOWA

CITY           SKY/WX    TMP DP  RH WIND       PRES   REMARKS
AMES           CLOUDY    22  15  75 N22G32    30.25R WCI   6
6HR MIN TEMP:  22; 6HR MAX TEMP:  34;

ANKENY *       CLOUDY    23  14  68 NW16G25   30.27R WCI  10
BOONE *        MOCLDY    19  14  79 NW18G29   30.24R WCI   4
CHARITON *     CLOUDY    23  16  74 N15       30.21S WCI  10
DES MOINES     PTCLDY    23  14  68 NW15      30.25R WCI  10
6HR MIN TEMP:  23; 6HR MAX TEMP:  35; 6HR PCP: TRACE;

GRINNELL*      PTCLDY    24  18  78 NW16      30.19R WCI  11
KNOXVILLE *    CLOUDY    25  14  63 NW18G26   30.20R WCI  11
MARSHALLTOWN   MOCLDY    24  16  71 NW21      30.19R WCI   9
6HR MIN TEMP:  24; 6HR MAX TEMP:  35;

NEWTON *       PTCLDY    23  16  74 NW17G28   30.20R WCI   9
PELLA *        MOCLDY    25  16  69 NW18      30.21R WCI  12
PERRY *          N/A     19  12  76 NW17G24   30.28S WCI   3
$$

IAZ004>006-015-016-023>025-035-036-120700-
   NORTH CENTRAL IOWA

CITY           SKY/WX    TMP DP  RH WIND       PRES   REMARKS
ALGONA *       CLEAR     16  12  86 NW13      30.25S WCI   2
CLARION *      PTCLDY    16  14  93 NW18G24   30.24S WCI  -1
ESTHERVILLE    CLEAR     13   8  81 NW20G28   30.27R WCI  -5
6HR MIN TEMP:  13; 6HR MAX TEMP:  23;

FORT DODGE *   CLEAR     16  11  80 NW8G20    30.27R WCI   5
MASON CITY     CLEAR     16  12  84 NW18G26   30.22R WCI   0
6HR MIN TEMP:  16; 6HR MAX TEMP:  32;

FOREST CITY *    N/A     18  14  86 NW14      30.22R WCI   4
WEBSTER CITY * CLEAR     18  10  73 NW15G22   30.23R WCI   3
IOWA FALLS *     N/A     22  17  80 NW21G28   30.21R WCI   6
$$

IAZ007>011-017>019-026>030-037>042-050>054-066-120700-
   NORTHEAST IOWA

CITY           SKY/WX    TMP DP  RH WIND       PRES   REMARKS
CEDAR RAPIDS   CLOUDY    28  21  75 N20G30    30.10R WCI  15
6HR MIN TEMP:  28; 6HR MAX TEMP:  36;

CHARLES CITY * CLEAR     21  12  68 NW15G23   30.17R WCI   8
CLINTON *      CLOUDY    29  22  75 NW25      30.04R WCI  14
DECORAH *      MOCLDY    19  14  79 N14       30.11R WCI   6
DUBUQUE        PTCLDY    22  14  71 N13       30.06R WCI  10
6HR MIN TEMP:  22; 6HR MAX TEMP:  32;

MONTICELLO *   PTCLDY    25  14  63 NW18G24   30.10R WCI  11
OELWEIN *      CLEAR     21  16  79 N20G31    30.14R WCI   6
WATERLOO       PTCLDY    21  13  71 NW17      30.17R WCI   7
6HR MIN TEMP:  21; 6HR MAX TEMP:  34;

$$

IAZ064-065-067-068-078-120700-
   EAST CENTRAL IOWA

CITY           SKY/WX    TMP DP  RH WIND       PRES   REMARKS
DAVENPORT      PTCLDY    28  19  69 NW24G37   30.08R WCI  14
6HR MIN TEMP:  28; 6HR MAX TEMP:  35;

IOWA CITY      CLOUDY    30  19  63 NW16      30.14R WCI  19
6HR MIN TEMP:  30; 6HR MAX TEMP:  39;

MT. PLEASANT * CLEAR     29  19  64 NW21G29   30.13R WCI  16
MUSCATINE *    MOCLDY    30  18  59 N22G29    30.11R WCI  17
QUAD CITIES    CLOUDY    32  19  58 NW20G33   30.05R WCI  20
6HR MIN TEMP:  32; 6HR MAX TEMP:  37;

$$

IAZ062-063-075>077-085>089-095>099-120700-
   SOUTHEAST IOWA

CITY           SKY/WX    TMP DP  RH WIND       PRES   REMARKS
BURLINGTON     CLOUDY    33  23  66 NW20G32   30.09R WCI  21
6HR MIN TEMP:  33; 6HR MAX TEMP:  38; 6HR PCP:  0.01;

FAIRFIELD *    CLOUDY    30  19  64 NW20G29   30.13R WCI  18
FORT MADISON * MOCLDY    30  21  69 NW23G31   30.11R WCI  17
KEOKUK *       CLOUDY    34  21  60 N13G24    30.11R WCI  25
OSKALOOSA *    CLOUDY    28  19  69 NW20G30   30.18R WCI  14
OTTUMWA        CLOUDY    29  18  63 NW24G31   30.17R WCI  15
6HR MIN TEMP:  29; 6HR MAX TEMP:  40;

WASHINGTON *   CLEAR     27  18  69 NW25G38   30.14R WCI  11
$$

ABBREVIATIONS USED IN REMARKS
   TC - TEMPERATURES IN CELSIUS
  WCI - WIND CHILL INDEX
   HX - HEAT INDEX
  VSB - VISIBILITY
$$





USA.gov is the U.S. government's official web portal to all federal, state and local government web resources and services.